Zurück zum Katalog

MARECS B2

AktivKommunikationMEO
NORAD 15386·PAYLOAD·🇪🇺 EU

Gestartet Nov 10, 1984 von Guiana Space Centre

Loading…

Nächste Überflüge (nächste 24 Stunden)

TLE

AktuellSource: Space-Track

Epoche: Sep 14, 2026, 00:02 UTC

1 15386U 84114B   26257.00190309 -.00000250  00000-0  00000-0 0  9993
2 15386  13.3868 332.3483 0109930  57.0908 310.4776  0.95929924113531

Verfolge MARECS B2 in Echtzeit mit AllMySat

Download on the App Store